Location: Arpaise
(41.0333°N, 14.7333°E)
Time: 16:03:00
(UTC+00:00)

YAOGAN 11 - Pass Details

Date: 05 July 2020
Orbit: 614 x 668 km, 98.3° (Epoch: 10 August)

Event Time Altitude Azimuth Distance (km) Brightness Sun altitude
Exits shadow 23:09:08 68° 10° (N) 681 4.3 -26.3°
Drops below altitude 10° 23:13:03 10° 349° (N) 2,029 7.7 -26.3°
Sets 23:15:16 0° 349° (NNW) 2,951 8.8 -26.3°
